Tracking 27107 objects as of 20-Mar-2023
HD Live streaming from Space Station
objects crossing your sky now

STARLINK-4254

Track STARLINK-4254 now!
10-day predictions
STARLINK-4254 is classified as:


NORAD ID: 52998
Int'l Code: 2022-076N
Perigee: 546.1 km
Apogee: 547.7 km
Inclination: 53.2 °
Period: 95.4 minutes
Semi major axis: 6917 km
RCS: Unknown
Launch date: July 7, 2022
Source: United States (US)
Launch site: AIR FORCE EASTERN TEST RANGE (AFETR)
Your satellite tracking list
Your tracking list is empty




NASA's NSSDC Master Catalog

Two Line Element Set (TLE):
1 52998U 22076N   23078.87476254  .00007900  00000-0  51390-3 0  9990
2 52998  53.2151 288.4423 0001189  99.0650 261.0477 15.08840868 38928
Source of the keplerian elements: AFSPC